Location: Caseificio
(44.7500°N, 11.0500°E)
Time: 02:57:30
(UTC+00:00)

Daily predictions for brighter satellites

Satellite Brightness Start Highest point End
(mag) Time Altitude Azimuth Time Altitude Azimuth Time Altitude Azimuth
ADEOS II 4.3 00:02:11 10° NE 00:05:01 14° E 00:07:44 10° ESE
Cosmos 1867 4.1 00:05:01 34° WSW 00:07:04 53° NW 00:12:27 10° NNE
Cosmos 1674 Rocket 3.8 00:06:55 52° W 00:07:06 52° WNW 00:11:21 10° N
Cosmos 2221 Rocket 4.5 00:06:47 36° W 00:07:08 36° WNW 00:11:15 10° N
NOSS 2-2 (D) 4.3 00:02:19 10° NW 00:07:30 89° WSW 00:11:38 26° SE
Cosmos 1461 4.0 00:03:45 10° NW 00:06:31 33° W 00:06:31 33° W
Cosmos 2298 Rocket 4.0 00:07:41 57° SSW 00:08:47 82° WNW 00:14:08 10° NNE
Cosmos 1674 4.2 00:10:51 26° WNW 00:10:51 26° WNW 00:13:52 10° NNW
USA 306 2.7 00:11:52 79° ESE 00:11:52 79° ESE 00:15:54 10° NE
Cosmos 1238 Rocket 4.4 00:10:58 10° NNW 00:12:06 18° NW 00:12:06 18° NW
Thor Agena Rocket 3.8 00:08:58 10° NNE 00:14:12 60° ESE 00:15:34 45° SSE
USA 307 2.8 00:15:20 74° ESE 00:15:20 74° ESE 00:19:22 10° ENE
ATLAS CENTAUR R/B 3.7 00:12:17 10° WNW 00:13:59 16° W 00:13:59 16° W
SL-16 R/B 3.5 00:16:08 24° SE 00:17:55 29° ESE 00:22:41 10° NE
ERBS 3.6 00:22:52 33° ENE 00:22:52 33° ENE 00:24:43 10° NE
Cosmos 1980 3.6 00:20:38 50° SSW 00:22:13 86° WNW 00:27:54 10° NNE
Cosmos 1378 Rocket 4.3 00:22:19 37° W 00:22:45 38° WNW 00:26:54 10° N
Cosmos 2333 Rocket 4.1 00:19:42 12° W 00:23:26 23° NW 00:27:53 10° N
ATLAS 5 CENTAUR R/B 2.7 00:13:51 10° NW 00:24:02 55° WSW 00:24:39 51° SSW
CZ-4C R/B 3.3 00:17:42 10° NW 00:24:52 50° WSW 00:27:53 36° SSW
Cosmos 1455 Rocket 3.6 00:20:30 10° N 00:24:54 55° ENE 00:26:09 40° SE
Cosmos 332 Rocket 3.7 00:28:23 57° S 00:29:17 75° ESE 00:34:05 10° NNE
NOSS 0 Rocket 4.2 00:29:22 36° SW 00:31:54 63° WNW 00:38:07 10° NNE
USA 32 4.1 00:35:14 47° SW 00:36:35 65° W 00:41:50 10° N
Meteor 1-24 Rocket 4.2 00:34:53 32° SSE 00:37:13 52° E 00:42:31 10° NNE
Meteor 2-10 Rocket 3.6 00:33:42 10° NNW 00:39:23 79° W 00:41:17 42° S
Cosmos 1975 Rocket 3.0 00:39:39 57° S 00:40:31 82° E 00:45:00 10° N
Cosmos 839 Rocket 4.3 00:38:46 10° NW 00:45:07 60° WSW 00:49:12 27° S
USA 308 3.0 00:44:46 47° W 00:45:48 68° NNW 00:49:58 10° NE
Cosmos 2219 Rocket 4.2 00:42:56 11° W 00:46:47 20° NW 00:50:50 10° N
MOS 1 Rocket 4.4 00:44:06 16° SE 00:47:00 36° ENE 00:50:57 10° N
Cosmos 1025 Rocket 3.0 00:47:03 54° S 00:47:59 79° E 00:52:19 10° N
Cosmos 1455 3.5 00:47:31 10° N 00:50:59 35° ENE 00:52:38 23° SE
Cosmos 1269 Rocket 4.1 00:46:33 10° NNW 00:51:52 77° ENE 00:55:07 24° SSE
GP-B 3.6 00:53:04 10° N 00:57:18 45° W 00:58:07 40° WSW
Meteor 2-5 Rocket 3.7 00:55:37 37° S 00:58:05 90° NNE 01:03:48 10° N
Lacrosse 5 1.9 00:58:31 42° SSW 01:00:04 64° SE 01:05:08 10° NE
CZ-2D R/B 2.1 00:54:46 10° NNE 01:00:11 79° ESE 01:02:28 35° S
Cosmos 1300 3.9 00:58:26 10° NNW 01:01:27 28° W 01:01:27 28° W
USA 267 4.2 01:02:15 25° WSW 01:02:15 25° WSW 01:07:10 10° WNW
USA 305 3.8 01:07:08 23° W 01:09:23 43° NNW 01:13:24 10° NE
Cosmos 1544 Rocket 3.5 01:06:50 10° N 01:11:17 88° E 01:13:10 34° S
USA 229 DEB 4.5 01:05:18 10° NW 01:12:01 37° WSW 01:15:06 27° SSW
USA 229 4.5 01:05:23 10° NW 01:12:07 38° WSW 01:15:15 27° SSW
Cosmos 2237 Rocket 3.1 01:11:28 23° WSW 01:14:22 39° NW 01:19:42 10° NNE
SL-16 R/B 2.5 01:14:42 20° S 01:19:07 79° WSW 01:25:24 10° NNW
AQUA 3.8 01:14:42 10° NNE 01:19:29 77° ESE 01:21:49 31° S
Helios 1A 3.7 01:16:52 14° SE 01:20:18 53° ENE 01:24:26 10° N
Lacrosse 5 rocket 1.3 01:21:54 43° S 01:22:54 61° SE 01:26:54 10° NE
SAR-Lupe-2 3.5 01:19:28 10° NNE 01:23:04 81° ESE 01:24:09 43° S
SME Rocket 3.9 01:24:35 30° WSW 01:25:10 31° W 01:29:25 10° NNW
Resurs 1-4 Rocket 2.3 01:24:08 10° N 01:29:17 57° WNW 01:31:56 28° SW
Cosmos 2074 Rocket 4.0 01:23:16 10° NNW 01:29:33 73° W 01:33:59 21° S
Cosmos 1943 Rocket 2.2 01:28:52 10° NNW 01:34:30 65° WSW 01:39:28 13° S
Cosmos 2297 3.7 01:28:44 10° NNW 01:34:30 82° WSW 01:40:14 10° SSE
Cosmos 1703 3.7 01:35:52 22° SSE 01:38:11 57° E 01:42:03 10° NNE
CRYOSAT 2 4.4 01:38:47 24° S 01:41:39 67° W 01:46:32 10° N
Cosmos 2184 Rocket 4.1 01:38:15 10° NNW 01:44:23 58° W 01:48:45 19° SSW
Cosmos 2278 Rocket 3.9 01:41:59 10° WNW 01:44:58 15° W 01:45:23 15° WSW
ADEOS II 2.1 01:40:01 10° N 01:45:17 77° WNW 01:48:40 23° SSW
IDEFIX/ARIANE 42P 2.6 01:40:54 10° NNE 01:46:13 90° W 01:49:52 21° SSW
Cosmos 1610 Rocket 4.4 01:42:04 10° N 01:48:15 82° W 01:54:08 11° S
Cosmos 292 Rocket 3.7 01:48:10 24° SSW 01:51:08 89° ESE 01:55:57 10° NNE
USA 307 4.4 01:51:21 10° W 01:55:06 31° NNW 01:58:52 10° NE
NPP 4.3 01:52:11 10° N 01:57:13 41° WNW 02:00:35 19° SW
ERBS 4.5 01:55:09 10° WNW 01:57:19 18° NNW 01:59:30 10° NNE
Cosmos 2369 Rocket 2.3 01:54:11 10° NNW 01:59:49 81° ENE 02:05:24 10° SSE
SL-16 R/B 2.8 01:58:00 19° WSW 02:01:46 46° WNW 02:07:15 10° NNE
IRS-1D 3.7 01:57:51 10° NNE 02:03:13 78° ESE 02:07:54 13° S
Cosmos 2228 2.9 01:58:52 10° N 02:03:15 82° W 02:07:33 10° S
Cosmos 614 Rocket 4.1 01:58:14 10° NNW 02:03:20 58° WSW 02:08:26 10° S
EO 1 Del DPAF 3.3 02:00:01 10° N 02:03:26 51° WNW 02:05:16 24° SW
Cosmos 2251 Rocket 3.5 02:00:06 10° NNW 02:05:24 90° SW 02:10:42 10° SSE
Meteor 1-28 Rocket 3.7 02:03:37 23° SSW 02:05:29 39° W 02:09:01 10° NNW
Cosmos 1656 Rocket 3.8 02:03:46 10° NNW 02:09:12 76° ENE 02:14:37 10° SSE
COSMOS 2455 2.9 02:04:48 19° SW 02:09:19 74° WNW 02:15:22 10° NNE
Cosmos 1536 Rocket 4.2 02:08:03 20° SW 02:10:38 39° WNW 02:14:47 10° N
COSMOS 2441 4.4 02:13:39 10° N 02:18:31 74° WNW 02:22:48 13° SSW
Cosmos 1408 4.3 02:16:29 10° SSE 02:19:43 31° E 02:22:56 10° NNE
Nadezhda 1 Rocket 4.5 02:15:05 16° SW 02:20:03 47° WNW 02:26:07 10° N
MSX 4.0 02:17:32 10° N 02:23:13 61° WNW 02:28:25 12° SSW
Cosmos 1603 3.9 02:19:47 11° SSW 02:25:10 71° ESE 02:30:50 10° NNE
MOS 1 Rocket 4.4 02:23:22 16° SW 02:25:22 21° W 02:28:40 10° NW
Cosmos 1455 4.0 02:23:55 10° NW 02:26:08 15° W 02:27:22 13° WSW
Cosmos 1271 Rocket 3.8 02:26:56 10° NW 02:30:10 26° W 02:32:44 14° SW
Cosmos 1606 Rocket 3.7 02:30:04 10° NNW 02:34:25 57° W 02:38:41 10° S
ALOS 3.0 02:33:02 10° NNE 02:37:38 54° E 02:42:11 10° S
CZ-2D R/B 4.0 02:36:14 10° NNW 02:39:31 17° WNW 02:42:48 10° W
CZ-2C R/B 3.1 02:34:45 10° NNE 02:39:48 57° E 02:44:42 10° S
Lacrosse 5 3.1 02:38:41 10° W 02:43:21 35° NNW 02:48:01 10° NE
Helios 1B rocket 2.4 02:40:21 10° N 02:44:26 76° WNW 02:48:28 10° SSW
Cosmos 2366 rocket 4.0 02:40:33 10° N 02:46:43 81° W 02:52:54 10° S
Cosmos 2341 Rocket 4.2 02:40:58 10° NNW 02:47:12 57° W 02:53:25 10° SSW
BREEZE-M DEB (TANK) 2.3 02:47:25 10° WSW 02:51:56 74° SSE 02:54:11 10° ENE
Cosmos 407 Rocket 3.6 02:48:03 10° NNW 02:53:19 62° WSW 02:58:29 10° S
Meteor 1-11 4.4 02:47:30 10° S 02:53:19 89° E 02:59:08 10° N
SL-8 Rocket 4.1 02:47:44 10° NNW 02:53:57 60° W 03:00:09 10° S
Okean 1-7 Rocket 4.2 02:50:38 10° S 02:54:57 58° E 02:59:18 10° NNE
Cosmos 1371 Rocket 4.1 02:50:06 10° SSW 02:55:16 85° ESE 03:00:29 10° NNE
Cosmos 1328 4.4 02:52:35 10° SSW 02:56:17 39° WNW 03:00:03 10° N
Cosmos 1943 3.4 02:51:04 10° SW 02:56:41 61° WNW 03:02:21 10° NNE
Genesis I 3.2 02:57:00 10° NW 03:01:02 65° WSW 03:04:57 10° SSE
Lacrosse 5 rocket 2.9 02:58:49 10° W 03:02:14 27° NNW 03:05:50 10° NE
Meteor 1-29 3.2 03:00:16 10° NNE 03:03:31 65° ESE 03:06:44 10° S
SL-16 R/B 4.3 03:01:10 10° WSW 03:03:41 12° W 03:06:12 10° WNW
Cosmos 1140 Rocket 3.8 02:59:11 10° NNW 03:04:11 47° WSW 03:09:11 10° S
